Flag for Germany Weather past 2 weeks in Bornheim (Rheinland), North Rhine-Westphalia, Germany

Now
64 °F

Passing clouds.


Feels Like: 64 °F
Forecast: 51 / 66 °F
Wind: 7 mph from West

Location: Bonn-Hangelar

Current Time: Sep 1, 2015 at 2:27:28 AM

Latest Report: Sep 1, 2015 at 2:00 AM


Visibility: 8 mi

Pressure: 29.85 "Hg

Humidity: 93%

Dew point: 62 °F

Location of Bornheim (Rheinland)Location

Historic Weather in Bornheim (Rheinland) — Graph

°F

Bornheim (Rheinland) temperature yesterday

Maximum temperature yesterday: 87 °F (at 4:00 PM)
Minimum temperature yesterday: 66 °F (at 8:00 AM)
Average temperature yesterday: 76 °F

Past Weeks' High & Low Weather Summary

 TemperatureHumidityPressure
High87 °F (Aug 30, 4:00 PM)100% (Aug 17, 1:00 AM)30.24 "Hg (Aug 17, 1:00 AM)
Low49 °F (Aug 19, 6:00 AM)32% (Aug 31, 4:00 PM)29.50 "Hg (Aug 24, 3:00 PM)
Average65 °F76%29.97 "Hg
* Reported Aug 17 1:00 AM — Sep 1 1:00 AM, Bornheim (Rheinland), Weather by CustomWeather, © 2015

Note: Actual official high and low records may vary slightly from our data, if they occured in-between our weather recording intervals... More about our weather records

Advertising

Bornheim (Rheinland) weather history for previous 24 hours

 ConditionsComfort  
Time TempWeatherWind HumidityBarometerVisibility
1:00 AM
Tue, Sep 1
67 °FFog.6 mph94%29.83 "Hg4 mi
11:00 PM
Mon, Aug 31
68 °FPassing clouds.7 mph89%29.83 "Hg11 mi
10:00 PM69 °FOvercast.6 mph87%29.84 "Hg17 mi
9:00 PM69 °FOvercast.5 mph85%29.84 "Hg28 mi
8:00 PM69 °FOvercast.5 mph83%29.83 "Hg37 mi
7:00 PM74 °FOvercast.9 mph69%29.80 "Hg25 mi
6:00 PM84 °FSunny.8 mph47%29.76 "Hg8 mi
5:00 PM87 °FOvercast.8 mph39%29.76 "Hg10 mi
4:00 PM87 °FScattered clouds.10 mph32%29.76 "Hg4 mi
3:00 PM87 °FPassing clouds.9 mph38%29.77 "Hg6 mi
2:00 PM85 °FPassing clouds.9 mph41%29.78 "Hg4 mi
1:00 PM83 °FSunny.9 mph46%29.80 "Hg6 mi
12:00 PM81 °FPassing clouds.6 mph48%29.82 "Hg10 mi
11:00 AM78 °FPartly sunny.3 mph55%29.83 "Hg19 mi
10:00 AM76 °FPassing clouds.8 mph55%29.84 "Hg7 mi
9:00 AM74 °FSunny.6 mph60%29.85 "Hg18 mi
8:00 AM66 °FSunny.2 mph98%29.86 "Hg3 mi
7:00 AM67 °FOvercast.2 mph100%29.88 "Hg1 mi
5:00 AM69 °FFog.5 mph96%29.90 "Hg1 mi
4:00 AM70 °FFog.5 mph95%29.93 "Hg2 mi
3:00 AM71 °FFog.6 mph94%29.93 "Hg2 mi
2:00 AM72 °FOvercast.3 mph88%29.95 "Hg7 mi
Weather by CustomWeather, © 2015

See weather overviewHow to use our weather pages